Location: Unspecified
(22.6800°N, 112.2000°E)
Time: 12:35:27
(UTC+08:00)

Tiros 1 despin weight - Pass Details

Date: 02 August 2021
Orbit: 593 x 641 km, 48.2° (Epoch: 26 September)

Event Time Altitude Azimuth Distance (km) Brightness Sun altitude
Rises 19:31:49 0° 331° (NNW) 2,928 ? -5.1°
Reaches altitude 10° 19:34:36 10° 346° (NNW) 2,012 ? -5.7°
Maximum altitude 19:38:13 22° 38° (NE) 1,373 ? -6.5°
Drops below altitude 10° 19:41:47 10° 89° (E) 1,989 ? -7.3°
Enters shadow 19:42:24 - 94° (E) 2,174 ? -7.4°
